TimeEDT,TemperatureF,Dew PointF,Humidity,Sea Level PressureIn,VisibilityMPH,Wind Direction,Wind SpeedMPH,Gust SpeedMPH,PrecipitationIn,Events,Conditions,WindDirDegrees,DateUTC
12:13 AM,34.0,28.2,79,30.37,10.0,South,4.6,-,N/A,,Clear,190,2012-10-13 04:13:00
12:33 AM,37.9,29.3,71,30.37,10.0,South,4.6,-,N/A,,Clear,190,2012-10-13 04:33:00
12:53 AM,38.3,29.3,70,30.36,10.0,South,3.5,-,N/A,,Clear,170,2012-10-13 04:53:00
1:13 AM,33.4,27.9,80,30.36,10.0,Calm,Calm,-,N/A,,Clear,0,2012-10-13 05:13:00
1:33 AM,32.5,28.0,83,30.34,10.0,Calm,Calm,-,N/A,,Clear,0,2012-10-13 05:33:00
1:53 AM,30.6,25.9,83,30.34,10.0,SSW,3.5,-,N/A,,Clear,200,2012-10-13 05:53:00
2:13 AM,29.7,27.0,90,30.33,10.0,South,3.5,-,N/A,,Clear,190,2012-10-13 06:13:00
2:34 AM,28.2,25.5,90,30.33,10.0,Calm,Calm,-,N/A,,Clear,0,2012-10-13 06:34:00
2:53 AM,30.4,27.3,88,30.32,10.0,Calm,Calm,-,N/A,,Clear,0,2012-10-13 06:53:00
3:13 AM,30.2,25.5,83,30.31,10.0,Calm,Calm,-,N/A,,Clear,0,2012-10-13 07:13:00
3:34 AM,28.8,25.7,88,30.31,10.0,Calm,Calm,-,N/A,,Clear,0,2012-10-13 07:34:00
3:53 AM,26.2,23.5,90,30.31,10.0,Calm,Calm,-,N/A,,Clear,0,2012-10-13 07:53:00
4:13 AM,31.5,27.9,87,30.30,10.0,South,4.6,-,N/A,,Clear,190,2012-10-13 08:13:00
4:34 AM,38.5,32.2,78,30.28,10.0,SSE,4.6,-,N/A,,Clear,160,2012-10-13 08:34:00
4:53 AM,39.2,32.5,77,30.29,10.0,South,3.5,-,N/A,,Clear,170,2012-10-13 08:53:00
5:13 AM,38.5,32.9,80,30.28,10.0,South,5.8,-,N/A,,Clear,190,2012-10-13 09:13:00
5:33 AM,39.2,33.4,80,30.28,10.0,South,5.8,-,N/A,,Clear,190,2012-10-13 09:33:00
5:53 AM,40.5,34.2,78,30.28,10.0,South,8.1,-,N/A,,Clear,190,2012-10-13 09:53:00
6:13 AM,40.3,34.3,79,30.28,10.0,South,6.9,-,N/A,,Clear,190,2012-10-13 10:13:00
6:33 AM,40.5,34.9,80,30.28,10.0,South,6.9,-,N/A,,Clear,190,2012-10-13 10:33:00
6:53 AM,41.2,35.2,79,30.28,10.0,South,6.9,-,N/A,,Clear,180,2012-10-13 10:53:00
7:13 AM,41.5,35.4,79,30.28,10.0,South,6.9,-,N/A,,Scattered Clouds,180,2012-10-13 11:13:00
7:33 AM,41.9,35.4,78,30.28,10.0,South,4.6,-,N/A,,Scattered Clouds,170,2012-10-13 11:33:00
7:53 AM,41.9,35.1,77,30.27,10.0,South,6.9,-,N/A,,Clear,180,2012-10-13 11:53:00
8:13 AM,41.9,35.4,78,30.26,10.0,South,5.8,-,N/A,,Clear,180,2012-10-13 12:13:00
8:33 AM,42.3,35.8,78,30.26,10.0,South,8.1,-,N/A,,Scattered Clouds,190,2012-10-13 12:33:00
8:53 AM,42.8,36.1,77,30.25,10.0,South,9.2,-,N/A,,Mostly Cloudy,190,2012-10-13 12:53:00
9:13 AM,43.7,36.5,76,30.25,10.0,South,6.9,-,N/A,,Overcast,190,2012-10-13 13:13:00
9:33 AM,43.9,37.4,78,30.23,10.0,South,11.5,16.1,N/A,Rain,Light Rain,180,2012-10-13 13:33:00
9:53 AM,43.7,38.1,81,30.23,10.0,South,12.7,19.6,N/A,Rain,Light Rain,190,2012-10-13 13:53:00
10:13 AM,43.7,38.5,82,30.23,10.0,South,10.4,16.1,N/A,Rain,Light Rain,190,2012-10-13 14:13:00
10:33 AM,43.7,38.7,82,30.22,10.0,South,15.0,19.6,N/A,,Overcast,190,2012-10-13 14:33:00
10:53 AM,44.1,38.5,81,30.22,10.0,SSW,10.4,17.3,N/A,Rain,Light Rain,200,2012-10-13 14:53:00
11:13 AM,44.6,39.7,83,30.19,10.0,South,10.4,18.4,N/A,Rain,Light Rain,190,2012-10-13 15:13:00
11:33 AM,44.6,38.8,80,30.18,10.0,SSW,11.5,20.7,N/A,Rain,Rain,200,2012-10-13 15:33:00
11:53 AM,44.1,39.7,85,30.14,10.0,South,10.4,-,N/A,Rain,Light Rain,170,2012-10-13 15:53:00
12:14 PM,44.4,39.4,82,30.13,10.0,South,12.7,18.4,N/A,,Overcast,180,2012-10-13 16:14:00
12:33 PM,44.8,39.2,81,30.11,10.0,South,12.7,20.7,N/A,,Overcast,190,2012-10-13 16:33:00
12:53 PM,45.9,39.4,78,30.10,10.0,South,10.4,-,N/A,,Overcast,180,2012-10-13 16:53:00
1:14 PM,46.4,39.9,78,30.09,10.0,South,10.4,-,N/A,,Overcast,190,2012-10-13 17:14:00
1:33 PM,46.4,40.5,80,30.06,10.0,South,11.5,16.1,N/A,Rain,Light Rain,190,2012-10-13 17:33:00
1:53 PM,46.0,41.2,83,30.04,10.0,South,8.1,-,N/A,Rain,Light Rain,180,2012-10-13 17:53:00
2:13 PM,46.4,41.4,83,30.03,10.0,SSW,8.1,-,N/A,,Overcast,200,2012-10-13 18:13:00
2:33 PM,46.4,42.1,85,30.01,10.0,South,8.1,-,N/A,,Drizzle,170,2012-10-13 18:33:00
2:53 PM,46.0,43.2,90,30.00,7.0,SSE,8.1,-,0.02,Rain,Rain,160,2012-10-13 18:53:00
3:13 PM,45.9,43.9,93,29.98,7.0,South,10.4,-,0.01,Rain,Rain,170,2012-10-13 19:13:00
3:33 PM,46.4,44.6,93,29.95,5.0,South,12.7,18.4,0.03,Rain,Light Rain,170,2012-10-13 19:33:00
3:53 PM,46.6,45.1,95,29.94,5.0,South,10.4,16.1,0.05,Rain,Light Rain,170,2012-10-13 19:53:00
4:13 PM,46.9,45.5,95,29.93,5.0,South,12.7,19.6,0.01,Rain,Rain,180,2012-10-13 20:13:00
4:33 PM,47.5,46.0,95,29.91,5.0,South,15.0,20.7,0.02,Rain,Rain,180,2012-10-13 20:33:00
4:53 PM,47.5,45.9,94,29.89,5.0,South,12.7,21.9,0.05,Rain,Rain,180,2012-10-13 20:53:00
5:13 PM,47.3,45.7,94,29.89,3.0,South,13.8,19.6,0.01,Rain,Rain,180,2012-10-13 21:13:00
5:33 PM,46.9,45.5,95,29.89,3.0,South,12.7,21.9,0.06,Rain,Rain,180,2012-10-13 21:33:00
5:53 PM,46.9,45.5,95,29.89,3.0,South,10.4,19.6,0.13,Rain,Heavy Rain,180,2012-10-13 21:53:00
6:13 PM,46.9,45.7,95,29.88,4.0,South,10.4,18.4,0.05,Rain,Rain,180,2012-10-13 22:13:00
6:33 PM,47.3,45.9,95,29.88,5.0,South,12.7,17.3,0.07,Rain,Rain,190,2012-10-13 22:33:00
6:53 PM,47.3,46.4,97,29.87,4.0,South,8.1,-,0.09,Rain,Rain,190,2012-10-13 22:53:00
7:13 PM,47.5,46.4,96,29.85,4.0,South,10.4,-,0.01,Rain,Light Rain,190,2012-10-13 23:13:00
7:33 PM,48.0,46.9,96,29.85,5.0,SSW,11.5,17.3,0.01,Rain,Rain,200,2012-10-13 23:33:00
7:53 PM,48.2,46.9,95,29.84,4.0,SSW,9.2,-,0.02,Rain,Light Rain,200,2012-10-13 23:53:00
8:13 PM,48.2,47.3,97,29.83,4.0,SSW,10.4,-,N/A,Rain,Light Rain,200,2012-10-14 00:13:00
8:33 PM,48.4,47.3,96,29.82,3.0,SSW,12.7,-,0.01,Rain,Heavy Rain,210,2012-10-14 00:33:00
8:53 PM,48.6,47.7,97,29.81,3.0,SSW,12.7,17.3,0.03,Rain,Rain,210,2012-10-14 00:53:00
9:13 PM,48.6,47.7,97,29.81,3.0,SSW,12.7,-,0.01,Rain,Light Rain,210,2012-10-14 01:13:00
9:33 PM,48.7,47.8,97,29.81,3.0,SW,11.5,-,0.02,Rain,Heavy Rain,220,2012-10-14 01:33:00
9:53 PM,49.1,48.2,97,29.82,2.5,WSW,9.2,-,0.06,Rain,Rain,240,2012-10-14 01:53:00
10:13 PM,49.1,48.2,97,29.81,3.0,SW,10.4,-,N/A,Rain,Rain,220,2012-10-14 02:13:00
10:33 PM,49.1,48.2,97,29.81,3.0,SW,10.4,-,N/A,,Drizzle,220,2012-10-14 02:33:00
10:53 PM,49.1,48.4,97,29.80,2.0,SW,10.4,-,N/A,,Light Drizzle,220,2012-10-14 02:53:00
11:13 PM,49.3,48.6,97,29.79,2.5,SW,9.2,-,N/A,,Light Drizzle,220,2012-10-14 03:13:00
11:33 PM,49.5,48.7,97,29.79,3.0,SW,8.1,-,N/A,,Light Drizzle,230,2012-10-14 03:33:00
11:53 PM,49.5,48.7,97,29.78,2.5,SW,9.2,-,N/A,,Light Drizzle,220,2012-10-14 03:53:00